Terminal Aerodrome Forecast
Issued by NWS Blacksburg, VA

Home | Current Version | Previous Version | Text Only | Print | Product List | Glossary On
Versions: 1 2 3 4 5 6 7 8 9 10 11 12 13 14 15 16 17 18 19 20 21 22 23 24
000
FTUS41 KRNK 060520
TAFDAN
TAF
KDAN 060520Z 0606/0706 19003KT P6SM BKN100
      TEMPO 0609/0611 4SM BR
     FM061700 22007KT P6SM BKN060
     FM070000 00000KT P6SM SCT120=

USA.gov is the U.S. government's official web portal to all federal, state and local government web resources and services.